Weather in Andrianovka

Russia / Tambov Oblast     51°44′50″N   42°17′57″E
temp.,
°C
wind,
m/s
gust,
m/s
humid.,
%
clouds,
%
prec.,
mm/h
press.,
hPa
HPBL,
m
27 february, sat
sat2700:00+2wnw51297100 0.1 1007368
03:000wsw61293100 0.1 1007321
06:00+1w6139494 0.0 1005496
09:00+1w6139597 0.0 1005675
12:00+1w7139999 0.0 1004695
15:00+1w8159297 0.1 1005795
18:00−6nnw8138489 0.5 1007683
21:00−8nnw6118977 0.6 1010544
28 february, sun
sun2800:00−9nw499193 0.0 1012493
03:00−10nw489372 0.0 1013352
06:00−11nw38930 0.0 1014296
09:00−10nw47890 0.0 1015379
12:00−7nw358645 0.0 1016486
15:00−6nw358772 0.0 1016529
18:00−7nw359399 0.0 1017199
21:00−8nnw339494 0.1 101973
1 march, mon
mon100:00−10n239556 0.0 102050
03:00−11n229446 0.0 102128
06:00−11nnw22930 0.0 102230
09:00−9nnw22910 0.0 1025140
12:00−7nw238453 0.0 1025398
15:00−5nw248677 0.0 1026480
18:00−7w229388 0.0 102524
21:00−5wsw269492 0.0 1025212
2 march, tue
tue200:00−4wsw41093100 0.1 1023416
03:00−4wsw51290100 0.1 1020424
06:00−3wsw71492100 0.1 1017545
09:00−1wsw81496100 1.0 1014736
12:00+1w81399100 0.8 1011766
15:00+1nw71295100 1.2 1010697
18:00−1nw5139086 0.1 1010567
21:00−1nw6129258 0.1 1012431
3 march, wed
wed300:00−2wnw61294100 0.2 1012523
03:00−3nw6139196 0.2 1012457
06:00−3nw6119051 0.0 1013645
09:00−2nw6108976 0.1 1014891
12:00−1nw71187100 0.1 1015946
15:00−1nw6108398 0.1 1016843
18:00−2nw6128795 0.1 1017662
21:00−3nw5108875 0.1 1019707